Regional Weather Roundup
Issued by NWS Boston, MA

Home | Current Version | Previous Version | Text Only | Print | Product List | Glossary On
Versions: 1 2 3 4 5 6 7 8 9 10 11 12 13 14 15 16 17 18 19 20 21 22 23 24 25 26 27 28
000
ASUS41 KBOX 250110
RWRBOX

REGIONAL WEATHER ROUNDUP
NATIONAL WEATHER SERVICE TAUNTON MA
900 PM EDT SUN SEP 24 2017

NOTE:  "FAIR" INDICATES FEW OR NO CLOUDS BELOW 12,000 FEET WITH NO
SIGNIFICANT WEATHER AND/OR OBSTRUCTIONS TO VISIBILITY.

MAZALL-250200-
EASTERN MASSACHUSETTS

CITY           SKY/WX    TMP DP  RH WIND       PRES   REMARKS
BOSTON         CLEAR     70  64  81 CALM      30.04R
BEVERLY        CLEAR     68  61  78 CALM      30.03R
LAWRENCE       CLEAR     75  64  68 SE3       30.05R
BEDFORD        CLEAR     70  64  81 CALM      30.03R
BLUE HILL        N/A     74  64  71 S8        30.05S
NORWOOD        CLEAR     69  67  93 CALM      30.03R
MARSHFIELD     CLEAR     64  64 100 CALM      30.04R
PLYMOUTH         N/A     68  63  84 CALM      30.05R
TAUNTON          N/A     66  64  93 CALM      30.04R
NEW BEDFORD    CLEAR     66  64  93 SW3       30.04R
$$

MAZALL-250200-
CAPE COD AND THE ISLANDS

CITY           SKY/WX    TMP DP  RH WIND       PRES   REMARKS
FALMOUTH       CLEAR     64  64 100 CALM      30.06R
HYANNIS        MOCLDY    65  64  97 CALM      30.04S FOG
CHATHAM        CLOUDY    64  64 100 CALM      30.05F FOG
PROVINCETOWN   CLEAR     66  65  96 SE6       30.05R
NANTUCKET      FOG       61  61 100 NE6       30.04S VSB 3/4
MARTHAS VNYRD  CLEAR     63  61  93 CALM      30.04S
$$

MAZALL-250200-
CENTRAL AND WESTERN MASSACHUSETTS

CITY           SKY/WX    TMP DP  RH WIND       PRES   REMARKS
WORCESTER      CLEAR     76  63  64 CALM      30.07F
FITCHBURG      CLEAR     73  70  90 CALM      30.05R
ORANGE         CLEAR     70  68  93 CALM      30.06R
SPRINGFIELD    CLEAR     68  65  89 CALM      30.03R
WESTFIELD      CLEAR     72  68  87 CALM      30.04R
NORTH ADAMS    CLEAR     66  64  93 CALM      30.08R
PITTSFIELD     CLEAR     70  64  81 SW6       30.09R
$$

RIZALL-250200-
RHODE ISLAND

CITY           SKY/WX    TMP DP  RH WIND       PRES   REMARKS
PROVIDENCE     CLEAR     69  62  78 S3        30.05R
NEWPORT        CLEAR     65  63  93 CALM      30.05R
BLOCK ISLAND   CLEAR     67  63  87 S3        30.06R
SMITHFIELD     CLEAR     68  66  93 CALM      30.06R
WESTERLY       CLEAR     67  62  84 CALM      30.06R
$$

CTZALL-250200-
CONNECTICUT

CITY           SKY/WX    TMP DP  RH WIND       PRES   REMARKS
BRADLEY INTL   PTCLDY    76  69  79 SE5       30.03R
HARTFORD       CLEAR     75  68  78 CALM      30.03R
BRIDGEPORT     CLEAR     75  64  68 CALM      30.04R
DANBURY        CLEAR     71  68  90 SW3       30.07R
GROTON         CLEAR     67  62  84 CALM      30.04R
NEW HAVEN      CLEAR     72  64  76 CALM      30.05R
CHESTER        FAIR      70  64  83 MISG      30.06S
MERIDEN        CLEAR     70  65  84 CALM      30.04R
WILLIMANTIC    CLEAR     74  67  78 CALM      30.05R
OXFORD         CLEAR     71  65  81 CALM      30.08R
$$

MEZ002-015-021-024-NHZ003-005-008-011-012-014-VTZ005-008-250200-
NORTHERN NEW ENGLAND

CITY           SKY/WX    TMP DP  RH WIND       PRES   REMARKS
PORTLAND ME    CLEAR     71  63  75 SW3       30.03R
BANGOR ME      PTCLDY    73  64  73 SW6       30.02R
CONCORD NH     CLEAR     72  68  87 CALM      30.04R
MANCHESTER NH  CLEAR     77  68  73 CALM      30.02R
NASHUA NH      CLEAR     73  70  90 CALM      30.04R
PORTSMOUTH NH  CLEAR     70  65  84 CALM      30.01S
JAFFREY NH     CLEAR     70  69  97 CALM      30.09R
KEENE NH       CLEAR     70  67  90 CALM      30.06R FOG
BURLINGTON VT  CLEAR     75  71  87 CALM      30.05S
MT. WASHINGTON FOG       57  57 100 NW21        N/A  VSB 0
$$

NYZ052-076-250200-
EASTERN NEW YORK

CITY           SKY/WX    TMP DP  RH WIND       PRES   REMARKS
ALBANY         CLEAR     73  68  84 CALM      30.05R
NEW YORK CITY  PTCLDY    77  63  61 S7        30.04R
$$

ANZALL-250200-
MARINE OBSERVATIONS

STATION/POSITION TIME  TEMP    WIND        PRES    VSBY  WAVE
                       AIR SEA DIR/SP/G                  HT/PER
                 (UTC) (F)     (DEG/KT/KT) (MB)    (MI)  (FT/S)
BOSTON BUOY      2350   65 64  140/  6/  6 1016.5          2/12
BUZZARDS BAY     0000   68     240/  6/  6 1017.6R
NANTUCKET SOUND  2350   61 62   80/  2/  4 1017.2          1/13
MASS BAY-STELLWA 0004   66 62  170/  4/  4 1016.2R         3/11
ISLE OF SHOALS   0000   74     200/ 13/ 14 1016.3R
S OF BLOCK IS    NOT AVBL
$$

......................KEY.........................
  SKY/WX - SKY CONDITION/PRESENT WEATHER
  TMP    - TEMPERATURE IN FAHRENHEIT
  DWPT   - DEWPOINT IN FAHRENHEIT
  RH     - RELATIVE HUMIDITY IN PERCENT
  WIND   - DIRECTION AND SPEED IN MPH
  PRES   - MEAN SEA LEVEL PRESSURE IN INCHES OF HG
  WCI    - WIND CHILL INDEX
  VSB    - VISIBILITY IN MILES
  HX     - HEAT INDEX
  TC     - TEMPERATURE IN CELSIUS
  VRB    - VARIABLE WIND DIRECTION
  N/A    - NOT AVAILABLE




USA.gov is the U.S. government's official web portal to all federal, state and local government web resources and services.